Regional Weather Roundup
Issued by NWS

Home | Current Version | Previous Version | Graphics & Text | Print | Product List | Glossary On
Versions: 1 2 3 4 5 6 7 8 9 10 11 12 13 14 15 16 17 18 19 20 21 22 23 24 25 26 27 28 29 30 31 32 33 34 35 36 37 38 39 40 41 42 43 44 45 46 47 48 49 50
000
ASUS45 KPSR 280910
RWRAZ

ARIZONA REGIONAL HOURLY WEATHER ROUNDUP
NATIONAL WEATHER SERVICE PHOENIX AZ
200 AM MST SUN DEC 28 2014

NOTE: FAIR INDICATES FEW OR NO CLOUDS BELOW 12,000 FEET WITH NO
SIGNIFICANT WEATHER AND/OR OBSTRUCTIONS TO VISIBILITY.

AZZ001>003-036-281000-
NORTHWEST ARIZONA

CITY           SKY/WX    TMP DP  RH WIND       PRES   REMARKS
BULLHEAD CITY  CLEAR     41  12  30 CALM      30.35S
KINGMAN        CLEAR     22  11  62 CALM      30.28F
$$

AZZ004>008-015-016-018-281000-
NORTH CENTRAL ARIZONA

CITY           SKY/WX    TMP DP  RH WIND       PRES   REMARKS
GRAND CANYON   PTCLDY     7   3  84 CALM      30.23F
PRESCOTT       CLEAR     20  10  65 SW5       30.26R WCI  13
FLAGSTAFF      CLEAR      9   3  77 CALM      30.20S
PAYSON         CLEAR     27   9  46 E5        30.26S WCI  21
PAGE           CLEAR     28   8  43 SW3       30.25F
$$

AZZ009>014-017-281000-
NORTHEAST ARIZONA

CITY           SKY/WX    TMP DP  RH WIND       PRES   REMARKS
WINSLOW        CLEAR     19  13  77 E5        30.25F WCI  12
SAINT JOHNS    CLEAR     18  10  71 S7        30.23F WCI   9
WINDOW ROCK    CLEAR      3  -3  76 CALM      30.21F
SHOW LOW       LGT RAIN  16   7  67 CALM      30.24S
$$

AZZ023-281000-
GREATER PHOENIX AREA

CITY           SKY/WX    TMP DP  RH WIND       PRES   REMARKS
PHOENIX        CLEAR     42  25  50 E5        30.26F
BUCKEYE          N/A     37  16  41 N9        30.29R WCI  31
LUKE AFB       CLEAR     40  20  44 N7        30.27S
DEER VALLEY    CLEAR     39  19  44 CALM      30.26S
SCOTTSDALE     CLEAR     39  22  50 CALM      30.27F
MESA-GATEWAY   CLEAR     32  23  69 E5        30.28F WCI  27
$$

AZZ027-028-281000-
SOUTHWEST MARICOPA COUNTY AND PINAL COUNTY

CITY           SKY/WX    TMP DP  RH WIND       PRES   REMARKS
CASA GRANDE    CLEAR     30  19  64 CALM      30.27S
GILA BEND      FAIR      35  22  59 SE6       30.29F WCI  30
$$

AZZ503-504-507>509-281000-
SOUTHEAST ARIZONA

CITY           SKY/WX    TMP DP  RH WIND       PRES   REMARKS
TUCSON         CLEAR     32  28  85 E6        30.29S WCI  26
DAVIS-MONTHAN  CLEAR     31  25  78 SE5       30.26F WCI  27
NOGALES        CLEAR     25  15  66 CALM      30.24S
SIERRA VISTA   CLEAR     27  14  58 SE3       30.24F
DOUGLAS        CLEAR     24  20  84 NE8       30.26F WCI  15
SAFFORD        CLEAR     26  20  77 E5        30.27R WCI  20
$$

AZZ020-021-025-026-031-281000-
SOUTHWEST ARIZONA

CITY           SKY/WX    TMP DP  RH WIND       PRES   REMARKS
YUMA           CLEAR    N/A N/A N/A CALM      30.31S
$$

CAZ031-033-041-043-047-048-061-281000-
SOUTHERN CALIFORNIA

CITY           SKY/WX    TMP DP  RH WIND       PRES   REMARKS
DOWNTOWN L.A.  PTCLDY    47  24  40 NE3       30.29F
L.A. AIRPORT   PTCLDY    49  26  41 NE7       30.29F
SAN DIEGO      CLEAR     48  24  39 CALM      30.31S
BURBANK        PTCLDY    44  23  43 N5        30.29F
ONTARIO        PTCLDY    40  25  55 CALM      30.29S
RIVERSIDE      CLEAR     39  21  48 E3        30.30S
PALM SPRINGS   CLEAR     42  20  41 N8        30.34F
EL CENTRO NAS  CLEAR     35  11  36 W9        30.32F WCI  28
IMPERIAL       CLEAR     36  15  42 W7        30.32F WCI  30
BLYTHE         CLEAR     39  16  39 NW3       30.33S
NEEDLES        CLEAR     38  10  31 W8        30.33F WCI  32
$$

NVZ020-UTZ003-281000-
SOUTHERN NEVADA-UTAH

CITY           SKY/WX    TMP DP  RH WIND       PRES   REMARKS
LAS VEGAS      PTCLDY    36  10  34 S7        30.27F WCI  30
SALT LAKE CITY MOCLDY    26  16  65 SE6       30.19F WCI  19
$$

NMZ009-TXZ055-281000-
NEW MEXICO-WEST TEXAS

CITY           SKY/WX    TMP DP  RH WIND       PRES   REMARKS
ALBUQUERQUE    PTCLDY    23   9  55 N6        30.23F WCI  16
EL PASO        CLEAR     30  28  92 SE5       30.24F WCI  25
$$


........................KEY........................
SKY/WX - SKY CONDITION/WEATHER
TMP    - TEMPERATURE IN FAHRENHEIT
DP     - DEW POINT IN FAHRENHEIT
RH     - RELATIVE HUMIDITY IN PERCENT
WIND   - DIRECTION AND SPEED IN MILES PER HOUR (MPH)
VRB    - VARIABLE WIND DIRECTION
PRES   - MEAN SEA LEVEL PRESSURE IN INCHES OF MERCURY
         F - FALLING PRESSURE   R - RISING PRESSURE
         S - STEADY PRESSURE
VSB    - VISIBILITY IN MILES
HX     - HEAT INDEX IN FAHRENHEIT
WCI    - WIND CHILL INDEX IN FAHRENHEIT
TC     - TEMPERATURE IN CELSIUS WHICH IS ALSO KNOWN AS
         TEMPERATURE IN CENTIGRADE
AFB    - AIR FORCE BASE
         LUKE AFB IS LUKE AIR FORCE BASE
         DAVIS-MONTHAN IS DAVIS-MONTHAN AIR FORCE BASE
NAS    - NAVAL AIR STATION
         EL CENTRO NAS IS EL CENTRO NAVAL AIR STATION
N/A    - NOT AVAILABLE


USA.gov is the U.S. government's official web portal to all federal, state and local government web resources and services.